Year,Month,Day,Hour,Minute,Value (Times are PST for windgust in km/hr)
2016,10,07,00,00,93.30
2016,10,07,00,01,93.30
2016,10,07,00,02,83.70
2016,10,07,00,03,83.70
2016,10,07,00,04,83.70
2016,10,07,00,05,96.60
2016,10,07,00,06,101.40
2016,10,07,00,07,85.30
2016,10,07,00,08,86.90
2016,10,07,00,09,82.10
2016,10,07,00,10,75.60
2016,10,07,00,11,85.30
2016,10,07,00,12,83.70
2016,10,07,00,13,82.10
2016,10,07,00,14,93.30
2016,10,07,00,15,88.50
2016,10,07,00,16,95.00
2016,10,07,00,17,88.50
2016,10,07,00,18,82.10
2016,10,07,00,19,93.30
2016,10,07,00,20,90.10
2016,10,07,00,21,85.30
2016,10,07,00,22,88.50
2016,10,07,00,23,85.30
2016,10,07,00,24,91.70
2016,10,07,00,25,91.70
2016,10,07,00,26,88.50
2016,10,07,00,27,90.10
2016,10,07,00,28,91.70
2016,10,07,00,29,93.30
2016,10,07,00,30,90.10
2016,10,07,00,31,77.30
2016,10,07,00,32,80.50
2016,10,07,00,33,80.50
2016,10,07,00,34,85.30
2016,10,07,00,35,95.00
2016,10,07,00,36,86.90
2016,10,07,00,37,75.60
2016,10,07,00,38,82.10
2016,10,07,00,39,74.00
2016,10,07,00,40,83.70
2016,10,07,00,41,80.50
2016,10,07,00,42,82.10
2016,10,07,00,43,86.90
2016,10,07,00,44,83.70
2016,10,07,00,45,86.90
2016,10,07,00,46,85.30
2016,10,07,00,47,83.70
2016,10,07,00,48,74.00
2016,10,07,00,49,78.80
2016,10,07,00,50,83.70
2016,10,07,00,51,77.30
2016,10,07,00,52,78.80
2016,10,07,00,53,78.80
2016,10,07,00,54,78.80
2016,10,07,00,55,78.80
2016,10,07,00,56,93.30
2016,10,07,00,57,91.70
2016,10,07,00,58,88.50
2016,10,07,00,59,82.10
2016,10,07,01,00,80.50
2016,10,07,01,01,90.10
2016,10,07,01,02,83.70
2016,10,07,01,03,80.50
2016,10,07,01,04,80.50
2016,10,07,01,05,83.70
2016,10,07,01,06,90.10
2016,10,07,01,07,90.10
2016,10,07,01,08,82.10
2016,10,07,01,09,78.80
2016,10,07,01,10,74.00
2016,10,07,01,11,75.60
2016,10,07,01,12,95.00
2016,10,07,01,13,91.70
2016,10,07,01,14,93.30
2016,10,07,01,15,86.90
2016,10,07,01,16,64.40
2016,10,07,01,17,69.20
2016,10,07,01,18,83.70
2016,10,07,01,19,90.10
2016,10,07,01,20,83.70
2016,10,07,01,21,74.00
2016,10,07,01,22,78.80
2016,10,07,01,23,88.50
2016,10,07,01,24,85.30
2016,10,07,01,25,77.30
2016,10,07,01,26,75.60
2016,10,07,01,27,75.60
2016,10,07,01,28,67.60
2016,10,07,01,29,80.50
2016,10,07,01,30,85.30
2016,10,07,01,31,74.00
2016,10,07,01,32,77.30
2016,10,07,01,33,80.50
2016,10,07,01,34,78.80
2016,10,07,01,35,78.80
2016,10,07,01,36,78.80
2016,10,07,01,37,78.80
2016,10,07,01,38,70.80
2016,10,07,01,39,77.30
2016,10,07,01,40,77.30
2016,10,07,01,41,78.80
2016,10,07,01,42,77.30
2016,10,07,01,43,78.80
2016,10,07,01,44,72.40
2016,10,07,01,45,67.60
2016,10,07,01,46,66.00
2016,10,07,01,47,62.70
2016,10,07,01,48,64.40
2016,10,07,01,49,66.00
2016,10,07,01,50,69.20
2016,10,07,01,51,69.20
2016,10,07,01,52,67.60
2016,10,07,01,53,62.70
2016,10,07,01,54,61.20
2016,10,07,01,55,54.70
2016,10,07,01,56,57.90
2016,10,07,01,57,59.50
2016,10,07,01,58,59.50
2016,10,07,01,59,61.20
2016,10,07,02,00,62.70
2016,10,07,02,01,64.40
2016,10,07,02,02,69.20
2016,10,07,02,03,57.90
2016,10,07,02,04,49.90
2016,10,07,02,05,53.10
2016,10,07,02,06,51.50
2016,10,07,02,07,56.30
2016,10,07,02,08,45.10
2016,10,07,02,09,53.10
2016,10,07,02,10,56.30
2016,10,07,02,11,59.50
2016,10,07,02,12,53.10
2016,10,07,02,13,56.30
2016,10,07,02,14,41.80
2016,10,07,02,15,25.70
2016,10,07,02,16,14.50
2016,10,07,02,17,17.70
2016,10,07,02,18,11.30
2016,10,07,02,19,16.10
2016,10,07,02,20,27.40
2016,10,07,02,21,27.40
2016,10,07,02,22,24.20
2016,10,07,02,23,24.20
2016,10,07,02,24,25.70
2016,10,07,02,25,22.50
2016,10,07,02,26,17.70
2016,10,07,02,27,16.10
2016,10,07,02,28,19.30
2016,10,07,02,29,16.10
2016,10,07,02,30,19.30
2016,10,07,02,31,17.70
2016,10,07,02,32,22.50
2016,10,07,02,33,17.70
2016,10,07,02,34,8.10
2016,10,07,02,35,17.70
2016,10,07,02,36,14.50
2016,10,07,02,37,14.50
2016,10,07,02,38,17.70
2016,10,07,02,39,19.30
2016,10,07,02,40,22.50
2016,10,07,02,41,22.50
2016,10,07,02,42,24.20
2016,10,07,02,43,29.00
2016,10,07,02,44,45.10
2016,10,07,02,45,43.50
2016,10,07,02,46,43.50
2016,10,07,02,47,43.50
2016,10,07,02,48,43.50
2016,10,07,02,49,43.50
2016,10,07,02,50,43.50
2016,10,07,02,51,33.80
2016,10,07,02,52,24.20
2016,10,07,02,53,24.20
2016,10,07,02,54,22.50
2016,10,07,02,55,22.50
2016,10,07,02,56,24.20
2016,10,07,02,57,27.40
2016,10,07,02,58,29.00
2016,10,07,02,59,30.60
2016,10,07,03,00,40.20
2016,10,07,03,01,40.20
2016,10,07,03,02,56.30
2016,10,07,03,03,54.70
2016,10,07,03,04,59.50
2016,10,07,03,05,62.70
2016,10,07,03,06,69.20
2016,10,07,03,07,75.60
2016,10,07,03,08,80.50
2016,10,07,03,09,77.30
2016,10,07,03,10,80.50
2016,10,07,03,11,74.00
2016,10,07,03,12,75.60
2016,10,07,03,13,78.80
2016,10,07,03,14,86.90
2016,10,07,03,15,86.90
2016,10,07,03,16,83.70
2016,10,07,03,17,80.50
2016,10,07,03,18,77.30
2016,10,07,03,19,74.00
2016,10,07,03,20,72.40
2016,10,07,03,21,82.10
2016,10,07,03,22,82.10
2016,10,07,03,23,82.10
2016,10,07,03,24,90.10
2016,10,07,03,25,80.50
2016,10,07,03,26,77.30
2016,10,07,03,27,85.30
2016,10,07,03,28,90.10
2016,10,07,03,29,78.80
2016,10,07,03,30,80.50
2016,10,07,03,31,88.50
2016,10,07,03,32,80.50
2016,10,07,03,33,78.80
2016,10,07,03,34,77.30
2016,10,07,03,35,75.60
2016,10,07,03,36,77.30
2016,10,07,03,37,74.00
2016,10,07,03,38,74.00
2016,10,07,03,39,85.30
2016,10,07,03,40,74.00
2016,10,07,03,41,72.40
2016,10,07,03,42,66.00
2016,10,07,03,43,72.40
2016,10,07,03,44,78.80
2016,10,07,03,45,70.80
2016,10,07,03,46,78.80
2016,10,07,03,47,77.30
2016,10,07,03,48,70.80
2016,10,07,03,49,75.60
2016,10,07,03,50,69.20
2016,10,07,03,51,69.20
2016,10,07,03,52,70.80
2016,10,07,03,53,69.20
2016,10,07,03,54,75.60
2016,10,07,03,55,72.40
2016,10,07,03,56,67.60
2016,10,07,03,57,62.70
2016,10,07,03,58,64.40
2016,10,07,03,59,59.50
2016,10,07,04,00,56.30
2016,10,07,04,01,54.70
2016,10,07,04,02,62.70
2016,10,07,04,03,64.40
2016,10,07,04,04,61.20
2016,10,07,04,05,64.40
2016,10,07,04,06,61.20
2016,10,07,04,07,61.20
2016,10,07,04,08,62.70
2016,10,07,04,09,59.50
2016,10,07,04,10,59.50
2016,10,07,04,11,64.40
2016,10,07,04,12,64.40
2016,10,07,04,13,70.80
2016,10,07,04,14,67.60
2016,10,07,04,15,69.20
2016,10,07,04,16,74.00
2016,10,07,04,17,70.80
2016,10,07,04,18,66.00
2016,10,07,04,19,67.60
2016,10,07,04,20,69.20
2016,10,07,04,21,70.80
2016,10,07,04,22,66.00
2016,10,07,04,23,66.00
2016,10,07,04,24,66.00
2016,10,07,04,25,69.20
2016,10,07,04,26,67.60
2016,10,07,04,27,69.20
2016,10,07,04,28,66.00
2016,10,07,04,29,72.40
2016,10,07,04,30,69.20
2016,10,07,04,31,62.70
2016,10,07,04,32,70.80
2016,10,07,04,33,69.20
2016,10,07,04,34,64.40
2016,10,07,04,35,62.70
2016,10,07,04,36,62.70
2016,10,07,04,37,64.40
2016,10,07,04,38,66.00
2016,10,07,04,39,69.20
2016,10,07,04,40,69.20
2016,10,07,04,41,61.20
2016,10,07,04,42,64.40
2016,10,07,04,43,67.60
2016,10,07,04,44,64.40
2016,10,07,04,45,67.60
2016,10,07,04,46,64.40
2016,10,07,04,47,75.60
2016,10,07,04,48,70.80
2016,10,07,04,49,69.20
2016,10,07,04,50,77.30
2016,10,07,04,51,75.60
2016,10,07,04,52,77.30
2016,10,07,04,53,75.60
2016,10,07,04,54,70.80
2016,10,07,04,55,72.40
2016,10,07,04,56,72.40
2016,10,07,04,57,72.40
2016,10,07,04,58,70.80
2016,10,07,04,59,67.60
2016,10,07,05,00,67.60
2016,10,07,05,01,67.60
2016,10,07,05,02,77.30
2016,10,07,05,03,74.00
2016,10,07,05,04,74.00
2016,10,07,05,05,75.60
2016,10,07,05,06,80.50
2016,10,07,05,07,77.30
2016,10,07,05,08,80.50
2016,10,07,05,09,78.80
2016,10,07,05,10,75.60
2016,10,07,05,11,78.80
2016,10,07,05,12,78.80
2016,10,07,05,13,72.40
2016,10,07,05,14,75.60
2016,10,07,05,15,72.40
2016,10,07,05,16,75.60
2016,10,07,05,17,72.40
2016,10,07,05,18,78.80
2016,10,07,05,19,75.60
2016,10,07,05,20,75.60
2016,10,07,05,21,83.70
2016,10,07,05,22,85.30
2016,10,07,05,23,86.90
2016,10,07,05,24,80.50
2016,10,07,05,25,82.10
2016,10,07,05,26,88.50
2016,10,07,05,27,90.10
2016,10,07,05,28,93.30
2016,10,07,05,29,88.50
2016,10,07,05,30,86.90
2016,10,07,05,31,80.50
2016,10,07,05,32,90.10
2016,10,07,05,33,90.10
2016,10,07,05,34,93.30
2016,10,07,05,35,95.00
2016,10,07,05,36,96.60
2016,10,07,05,37,90.10
2016,10,07,05,38,93.30
2016,10,07,05,39,96.60
2016,10,07,05,40,90.10
2016,10,07,05,41,98.20
2016,10,07,05,42,96.60
2016,10,07,05,43,93.30
2016,10,07,05,44,95.00
2016,10,07,05,45,95.00
2016,10,07,05,46,95.00
2016,10,07,05,47,93.30
2016,10,07,05,48,95.00
2016,10,07,05,49,91.70
2016,10,07,05,50,90.10
2016,10,07,05,51,90.10
2016,10,07,05,52,90.10
2016,10,07,05,53,90.10
2016,10,07,05,54,88.50
2016,10,07,05,55,90.10
2016,10,07,05,56,95.00
2016,10,07,05,57,95.00
2016,10,07,05,58,91.70
2016,10,07,05,59,91.70
2016,10,07,06,00,90.10
2016,10,07,06,01,93.30
2016,10,07,06,02,96.60
2016,10,07,06,03,90.10
2016,10,07,06,04,96.60
2016,10,07,06,05,95.00
2016,10,07,06,06,88.50
2016,10,07,06,07,91.70
2016,10,07,06,08,90.10
2016,10,07,06,09,91.70
2016,10,07,06,10,93.30
2016,10,07,06,11,90.10
2016,10,07,06,12,86.90
2016,10,07,06,13,85.30
2016,10,07,06,14,83.70
2016,10,07,06,15,85.30
2016,10,07,06,16,83.70
2016,10,07,06,17,82.10
2016,10,07,06,18,82.10
2016,10,07,06,19,78.80
2016,10,07,06,20,77.30
2016,10,07,06,21,78.80
2016,10,07,06,22,77.30
2016,10,07,06,23,77.30
2016,10,07,06,24,74.00
2016,10,07,06,25,72.40
2016,10,07,06,26,78.80
2016,10,07,06,27,78.80
2016,10,07,06,28,80.50
2016,10,07,06,29,78.80
2016,10,07,06,30,77.30
2016,10,07,06,31,77.30
2016,10,07,06,32,77.30
2016,10,07,06,33,77.30
2016,10,07,06,34,70.80
2016,10,07,06,35,75.60
2016,10,07,06,36,78.80
2016,10,07,06,37,77.30
2016,10,07,06,38,77.30
2016,10,07,06,39,77.30
2016,10,07,06,40,80.50
2016,10,07,06,41,75.60
2016,10,07,06,42,74.00
2016,10,07,06,43,78.80
2016,10,07,06,44,78.80
2016,10,07,06,45,83.70
2016,10,07,06,46,80.50
2016,10,07,06,47,80.50
2016,10,07,06,48,77.30
2016,10,07,06,49,85.30
2016,10,07,06,50,78.80
2016,10,07,06,51,82.10
2016,10,07,06,52,80.50
2016,10,07,06,53,80.50
2016,10,07,06,54,77.30
2016,10,07,06,55,82.10
2016,10,07,06,56,80.50
2016,10,07,06,57,82.10
2016,10,07,06,58,74.00
2016,10,07,06,59,77.30
2016,10,07,07,00,82.10
2016,10,07,07,01,78.80
2016,10,07,07,02,78.80
2016,10,07,07,03,75.60
2016,10,07,07,04,74.00
2016,10,07,07,05,72.40
2016,10,07,07,06,75.60
2016,10,07,07,07,74.00
2016,10,07,07,08,74.00
2016,10,07,07,09,72.40
2016,10,07,07,10,75.60
2016,10,07,07,11,75.60
2016,10,07,07,12,69.20
2016,10,07,07,13,74.00
2016,10,07,07,14,74.00
2016,10,07,07,15,75.60
2016,10,07,07,16,74.00
2016,10,07,07,17,72.40
2016,10,07,07,18,75.60
2016,10,07,07,19,77.30
2016,10,07,07,20,75.60
2016,10,07,07,21,74.00
2016,10,07,07,22,74.00
2016,10,07,07,23,77.30
2016,10,07,07,24,70.80
2016,10,07,07,25,70.80
2016,10,07,07,26,70.80
2016,10,07,07,27,74.00
2016,10,07,07,28,70.80
2016,10,07,07,29,72.40
2016,10,07,07,30,70.80
2016,10,07,07,31,70.80
2016,10,07,07,32,67.60
2016,10,07,07,33,66.00
2016,10,07,07,34,66.00
2016,10,07,07,35,70.80
2016,10,07,07,36,67.60
2016,10,07,07,37,66.00
2016,10,07,07,38,62.70
2016,10,07,07,39,59.50
2016,10,07,07,40,59.50
2016,10,07,07,41,64.40
2016,10,07,07,42,64.40
2016,10,07,07,43,70.80
2016,10,07,07,44,67.60
2016,10,07,07,45,69.20
2016,10,07,07,46,69.20
2016,10,07,07,47,72.40
2016,10,07,07,48,75.60
2016,10,07,07,49,74.00
2016,10,07,07,50,74.00
2016,10,07,07,51,67.60
2016,10,07,07,52,70.80
2016,10,07,07,53,72.40
2016,10,07,07,54,67.60
2016,10,07,07,55,69.20
2016,10,07,07,56,69.20
2016,10,07,07,57,80.50
2016,10,07,07,58,77.30
2016,10,07,07,59,72.40
2016,10,07,08,00,75.60
2016,10,07,08,01,70.80
2016,10,07,08,02,72.40
2016,10,07,08,03,72.40
2016,10,07,08,04,72.40
2016,10,07,08,05,66.00
2016,10,07,08,06,69.20
2016,10,07,08,07,67.60
2016,10,07,08,08,67.60
2016,10,07,08,09,67.60
2016,10,07,08,10,66.00
2016,10,07,08,11,69.20
2016,10,07,08,12,66.00
2016,10,07,08,13,66.00
2016,10,07,08,14,72.40
2016,10,07,08,15,67.60
2016,10,07,08,16,67.60
2016,10,07,08,17,69.20
2016,10,07,08,18,67.60
2016,10,07,08,19,66.00
2016,10,07,08,20,69.20
2016,10,07,08,21,69.20
2016,10,07,08,22,69.20
2016,10,07,08,23,66.00
2016,10,07,08,24,64.40
2016,10,07,08,25,64.40
2016,10,07,08,26,66.00
2016,10,07,08,27,66.00
2016,10,07,08,28,69.20
2016,10,07,08,29,62.70
2016,10,07,08,30,66.00
2016,10,07,08,31,64.40
2016,10,07,08,32,66.00
2016,10,07,08,33,64.40
2016,10,07,08,34,75.60
2016,10,07,08,35,69.20
2016,10,07,08,36,69.20
2016,10,07,08,37,64.40
2016,10,07,08,38,59.50
2016,10,07,08,39,64.40
2016,10,07,08,40,66.00
2016,10,07,08,41,67.60
2016,10,07,08,42,72.40
2016,10,07,08,43,70.80
2016,10,07,08,44,72.40
2016,10,07,08,45,70.80
2016,10,07,08,46,69.20
2016,10,07,08,47,70.80
2016,10,07,08,48,72.40
2016,10,07,08,49,74.00
2016,10,07,08,50,77.30
2016,10,07,08,51,77.30
2016,10,07,08,52,74.00
2016,10,07,08,53,78.80
2016,10,07,08,54,78.80
2016,10,07,08,55,77.30
2016,10,07,08,56,78.80
2016,10,07,08,57,75.60
2016,10,07,08,58,70.80
2016,10,07,08,59,74.00
2016,10,07,09,00,74.00
2016,10,07,09,01,70.80
2016,10,07,09,02,70.80
2016,10,07,09,03,74.00
2016,10,07,09,04,72.40
2016,10,07,09,05,74.00
2016,10,07,09,06,69.20
2016,10,07,09,07,70.80
2016,10,07,09,08,70.80
2016,10,07,09,09,72.40
2016,10,07,09,10,72.40
2016,10,07,09,11,72.40
2016,10,07,09,12,75.60
2016,10,07,09,13,72.40
2016,10,07,09,14,70.80
2016,10,07,09,15,70.80
2016,10,07,09,16,67.60
2016,10,07,09,17,70.80
2016,10,07,09,18,70.80
2016,10,07,09,19,69.20
2016,10,07,09,20,69.20
2016,10,07,09,21,70.80
2016,10,07,09,22,69.20
2016,10,07,09,23,70.80
2016,10,07,09,24,72.40
2016,10,07,09,25,75.60
2016,10,07,09,26,72.40
2016,10,07,09,27,74.00
2016,10,07,09,28,75.60
2016,10,07,09,29,77.30
2016,10,07,09,30,72.40
2016,10,07,09,31,75.60
2016,10,07,09,32,74.00
2016,10,07,09,33,74.00
2016,10,07,09,34,74.00
2016,10,07,09,35,72.40
2016,10,07,09,36,74.00
2016,10,07,09,37,72.40
2016,10,07,09,38,74.00
2016,10,07,09,39,72.40
2016,10,07,09,40,72.40
2016,10,07,09,41,72.40
2016,10,07,09,42,70.80
2016,10,07,09,43,69.20
2016,10,07,09,44,72.40
2016,10,07,09,45,72.40
2016,10,07,09,46,74.00
2016,10,07,09,47,72.40
2016,10,07,09,48,72.40
2016,10,07,09,49,69.20
2016,10,07,09,50,72.40
2016,10,07,09,51,70.80
2016,10,07,09,52,69.20
2016,10,07,09,53,69.20
2016,10,07,09,54,69.20
2016,10,07,09,55,70.80
2016,10,07,09,56,70.80
2016,10,07,09,57,67.60
2016,10,07,09,58,67.60
2016,10,07,09,59,69.20
2016,10,07,10,00,67.60
2016,10,07,10,01,66.00
2016,10,07,10,02,69.20
2016,10,07,10,03,69.20
2016,10,07,10,04,69.20
2016,10,07,10,05,69.20
2016,10,07,10,06,67.60
2016,10,07,10,07,67.60
2016,10,07,10,08,67.60
2016,10,07,10,09,70.80
2016,10,07,10,10,69.20
2016,10,07,10,11,62.70
2016,10,07,10,12,67.60
2016,10,07,10,13,67.60
2016,10,07,10,14,69.20
2016,10,07,10,15,64.40
2016,10,07,10,16,66.00
2016,10,07,10,17,66.00
2016,10,07,10,18,62.70
2016,10,07,10,19,67.60
2016,10,07,10,20,66.00
2016,10,07,10,21,67.60
2016,10,07,10,22,67.60
2016,10,07,10,23,64.40
2016,10,07,10,24,66.00
2016,10,07,10,25,62.70
2016,10,07,10,26,62.70
2016,10,07,10,27,66.00
2016,10,07,10,28,64.40
2016,10,07,10,29,64.40
2016,10,07,10,30,64.40
2016,10,07,10,31,64.40
2016,10,07,10,32,64.40
2016,10,07,10,33,64.40
2016,10,07,10,34,67.60
2016,10,07,10,35,69.20
2016,10,07,10,36,69.20
2016,10,07,10,37,66.00
2016,10,07,10,38,67.60
2016,10,07,10,39,66.00
2016,10,07,10,40,67.60
2016,10,07,10,41,67.60
2016,10,07,10,42,66.00
2016,10,07,10,43,66.00
2016,10,07,10,44,66.00
2016,10,07,10,45,67.60
2016,10,07,10,46,64.40
2016,10,07,10,47,64.40
2016,10,07,10,48,66.00
2016,10,07,10,49,70.80
2016,10,07,10,50,70.80
2016,10,07,10,51,69.20
2016,10,07,10,52,67.60
2016,10,07,10,53,72.40
2016,10,07,10,54,69.20
2016,10,07,10,55,72.40
2016,10,07,10,56,72.40
2016,10,07,10,57,69.20
2016,10,07,10,58,64.40
2016,10,07,10,59,61.20
2016,10,07,11,00,64.40
2016,10,07,11,01,70.80
2016,10,07,11,02,67.60
2016,10,07,11,03,67.60
2016,10,07,11,04,64.40
2016,10,07,11,05,66.00
2016,10,07,11,06,69.20
2016,10,07,11,07,66.00
2016,10,07,11,08,67.60
2016,10,07,11,09,67.60
2016,10,07,11,10,67.60
2016,10,07,11,11,67.60
2016,10,07,11,12,62.70
2016,10,07,11,13,66.00
2016,10,07,11,14,66.00
2016,10,07,11,15,67.60
2016,10,07,11,16,66.00
2016,10,07,11,17,64.40
2016,10,07,11,18,64.40
2016,10,07,11,19,66.00
2016,10,07,11,20,64.40
2016,10,07,11,21,67.60
2016,10,07,11,22,62.70
2016,10,07,11,23,66.00
2016,10,07,11,24,66.00
2016,10,07,11,25,64.40
2016,10,07,11,26,64.40
2016,10,07,11,27,66.00
2016,10,07,11,28,66.00
2016,10,07,11,29,67.60
2016,10,07,11,30,66.00
2016,10,07,11,31,64.40
2016,10,07,11,32,61.20
2016,10,07,11,33,64.40
2016,10,07,11,34,62.70
2016,10,07,11,35,62.70
2016,10,07,11,36,57.90
2016,10,07,11,37,62.70
2016,10,07,11,38,57.90
2016,10,07,11,39,57.90
2016,10,07,11,40,57.90
2016,10,07,11,41,59.50
2016,10,07,11,42,56.30
2016,10,07,11,43,57.90
2016,10,07,11,44,57.90
2016,10,07,11,45,53.10
2016,10,07,11,46,56.30
2016,10,07,11,47,53.10
2016,10,07,11,48,53.10
2016,10,07,11,49,53.10
2016,10,07,11,50,56.30
2016,10,07,11,51,54.70
2016,10,07,11,52,53.10
2016,10,07,11,53,54.70
2016,10,07,11,54,51.50
2016,10,07,11,55,53.10
2016,10,07,11,56,54.70
2016,10,07,11,57,51.50
2016,10,07,11,58,54.70
2016,10,07,11,59,54.70
2016,10,07,12,00,46.70
2016,10,07,12,01,53.10
2016,10,07,12,02,51.50
2016,10,07,12,03,49.90
2016,10,07,12,04,56.30
2016,10,07,12,05,49.90
2016,10,07,12,06,51.50
2016,10,07,12,07,48.30
2016,10,07,12,08,48.30
2016,10,07,12,09,46.70
2016,10,07,12,10,46.70
2016,10,07,12,11,48.30
2016,10,07,12,12,49.90
2016,10,07,12,13,49.90
2016,10,07,12,14,53.10
2016,10,07,12,15,48.30
2016,10,07,12,16,46.70
2016,10,07,12,17,46.70
2016,10,07,12,18,45.10
2016,10,07,12,19,45.10
2016,10,07,12,20,45.10
2016,10,07,12,21,40.20
2016,10,07,12,22,38.60
2016,10,07,12,23,41.80
2016,10,07,12,24,37.00
2016,10,07,12,25,37.00
2016,10,07,12,26,35.40
2016,10,07,12,27,33.80
2016,10,07,12,28,35.40
2016,10,07,12,29,35.40
2016,10,07,12,30,40.20
2016,10,07,12,31,38.60
2016,10,07,12,32,40.20
2016,10,07,12,33,32.20
2016,10,07,12,34,30.60
2016,10,07,12,35,30.60
2016,10,07,12,36,29.00
2016,10,07,12,37,29.00
2016,10,07,12,38,32.20
2016,10,07,12,39,32.20
2016,10,07,12,40,30.60
2016,10,07,12,41,27.40
2016,10,07,12,42,29.00
2016,10,07,12,43,29.00
2016,10,07,12,44,27.40
2016,10,07,12,45,25.70
2016,10,07,12,46,24.20
2016,10,07,12,47,25.70
2016,10,07,12,48,24.20
2016,10,07,12,49,27.40
2016,10,07,12,50,25.70
2016,10,07,12,51,27.40
2016,10,07,12,52,27.40
2016,10,07,12,53,27.40
2016,10,07,12,54,29.00
2016,10,07,12,55,29.00
2016,10,07,12,56,29.00
2016,10,07,12,57,29.00
2016,10,07,12,58,32.20
2016,10,07,12,59,29.00
2016,10,07,13,00,33.80
2016,10,07,13,01,35.40
2016,10,07,13,02,37.00
2016,10,07,13,03,38.60
2016,10,07,13,04,38.60
2016,10,07,13,05,35.40
2016,10,07,13,06,32.20
2016,10,07,13,07,32.20
2016,10,07,13,08,32.20
2016,10,07,13,09,46.70
2016,10,07,13,10,45.10
2016,10,07,13,11,46.70
2016,10,07,13,12,46.70
2016,10,07,13,13,46.70
2016,10,07,13,14,46.70
2016,10,07,13,15,45.10
2016,10,07,13,16,45.10
2016,10,07,13,17,48.30
2016,10,07,13,18,48.30
2016,10,07,13,19,48.30
2016,10,07,13,20,49.90
2016,10,07,13,21,48.30
2016,10,07,13,22,45.10
2016,10,07,13,23,43.50
2016,10,07,13,24,43.50
2016,10,07,13,25,48.30
2016,10,07,13,26,46.70
2016,10,07,13,27,49.90
2016,10,07,13,28,46.70
2016,10,07,13,29,46.70
2016,10,07,13,30,46.70
2016,10,07,13,31,46.70
2016,10,07,13,32,45.10
2016,10,07,13,33,45.10
2016,10,07,13,34,46.70
2016,10,07,13,35,43.50
2016,10,07,13,36,43.50
2016,10,07,13,37,43.50
2016,10,07,13,38,45.10
2016,10,07,13,39,45.10
2016,10,07,13,40,45.10
2016,10,07,13,41,45.10
2016,10,07,13,42,46.70
2016,10,07,13,43,46.70
2016,10,07,13,44,49.90
2016,10,07,13,45,48.30
2016,10,07,13,46,46.70
2016,10,07,13,47,49.90
2016,10,07,13,48,48.30
2016,10,07,13,49,45.10
2016,10,07,13,50,48.30
2016,10,07,13,51,48.30
2016,10,07,13,52,46.70
2016,10,07,13,53,48.30
2016,10,07,13,54,46.70
2016,10,07,13,55,48.30
2016,10,07,13,56,48.30
2016,10,07,13,57,48.30
2016,10,07,13,58,46.70
2016,10,07,13,59,48.30
2016,10,07,14,00,45.10
2016,10,07,14,01,46.70
2016,10,07,14,02,45.10
2016,10,07,14,03,48.30
2016,10,07,14,04,48.30
2016,10,07,14,05,46.70
2016,10,07,14,06,46.70
2016,10,07,14,07,49.90
2016,10,07,14,08,49.90
2016,10,07,14,09,45.10
2016,10,07,14,10,46.70
2016,10,07,15,06,40.20
2016,10,07,15,07,38.60
2016,10,07,15,08,38.60
2016,10,07,15,09,38.60
2016,10,07,15,10,37.00
2016,10,07,15,11,40.20
2016,10,07,15,12,41.80
2016,10,07,15,13,41.80
2016,10,07,15,14,40.20
2016,10,07,15,15,38.60
2016,10,07,15,16,40.20
2016,10,07,15,17,40.20
2016,10,07,15,18,38.60
2016,10,07,15,19,35.40
2016,10,07,15,20,37.00
2016,10,07,15,21,38.60
2016,10,07,15,22,41.80
2016,10,07,15,23,43.50
2016,10,07,15,24,40.20
2016,10,07,15,25,40.20
2016,10,07,15,26,41.80
2016,10,07,15,27,41.80
2016,10,07,15,28,43.50
2016,10,07,15,29,43.50
2016,10,07,15,30,45.10
2016,10,07,15,31,46.70
2016,10,07,15,32,43.50
2016,10,07,15,33,40.20
2016,10,07,15,34,41.80
2016,10,07,15,35,43.50
2016,10,07,15,36,40.20
2016,10,07,15,37,38.60
2016,10,07,15,38,38.60
2016,10,07,15,39,35.40
2016,10,07,15,40,37.00
2016,10,07,15,41,37.00
2016,10,07,15,42,35.40
2016,10,07,15,43,35.40
2016,10,07,15,44,33.80
2016,10,07,15,45,32.20
2016,10,07,15,46,30.60
2016,10,07,15,47,32.20
2016,10,07,15,48,33.80
2016,10,07,15,49,33.80
2016,10,07,15,50,33.80
2016,10,07,15,51,32.20
2016,10,07,15,52,33.80
2016,10,07,15,53,32.20
2016,10,07,15,54,32.20
2016,10,07,15,55,30.60
2016,10,07,15,56,32.20
2016,10,07,15,57,30.60
2016,10,07,15,58,29.00
2016,10,07,15,59,30.60
2016,10,07,16,00,27.40
2016,10,07,16,01,29.00
2016,10,07,16,02,27.40
2016,10,07,16,03,25.70
2016,10,07,16,04,25.70
2016,10,07,16,05,27.40
2016,10,07,16,06,29.00
2016,10,07,16,07,29.00
2016,10,07,16,08,29.00
2016,10,07,16,09,24.20
2016,10,07,16,10,20.90
2016,10,07,16,11,25.70
2016,10,07,16,12,25.70
2016,10,07,16,13,24.20
2016,10,07,16,14,22.50
2016,10,07,16,15,20.90
2016,10,07,16,16,24.20
2016,10,07,16,17,22.50
2016,10,07,16,18,22.50
2016,10,07,16,19,22.50
2016,10,07,16,20,22.50
2016,10,07,16,21,22.50
2016,10,07,16,22,24.20
2016,10,07,16,23,22.50
2016,10,07,16,24,25.70
2016,10,07,16,25,25.70
2016,10,07,16,26,24.20
2016,10,07,16,27,24.20
2016,10,07,16,28,22.50
2016,10,07,16,29,22.50
2016,10,07,16,30,24.20
2016,10,07,16,31,20.90
2016,10,07,16,32,22.50
2016,10,07,16,33,20.90
2016,10,07,16,34,17.70
2016,10,07,16,35,17.70
2016,10,07,16,36,19.30
2016,10,07,16,37,17.70
2016,10,07,16,38,14.50
2016,10,07,16,39,16.10
2016,10,07,16,40,17.70
2016,10,07,16,41,17.70
2016,10,07,16,42,17.70
2016,10,07,16,43,19.30
2016,10,07,16,44,19.30
2016,10,07,16,45,16.10
2016,10,07,16,46,14.50
2016,10,07,16,47,16.10
2016,10,07,16,48,14.50
2016,10,07,16,49,16.10
2016,10,07,16,50,19.30
2016,10,07,16,51,17.70
2016,10,07,16,52,17.70
2016,10,07,16,53,16.10
2016,10,07,16,54,14.50
2016,10,07,16,55,14.50
2016,10,07,16,56,17.70
2016,10,07,16,57,16.10
2016,10,07,16,58,16.10
2016,10,07,16,59,16.10
2016,10,07,17,00,17.70
2016,10,07,17,01,17.70
2016,10,07,17,02,19.30
2016,10,07,17,03,19.30
2016,10,07,17,04,20.90
2016,10,07,17,05,20.90
2016,10,07,17,06,24.20
2016,10,07,17,07,25.70
2016,10,07,17,08,25.70
2016,10,07,17,09,25.70
2016,10,07,17,10,25.70
2016,10,07,17,11,24.20
2016,10,07,17,12,24.20
2016,10,07,17,13,24.20
2016,10,07,17,14,16.10
2016,10,07,17,15,16.10
2016,10,07,17,16,17.70
2016,10,07,17,17,16.10
2016,10,07,17,18,16.10
2016,10,07,17,19,17.70
2016,10,07,17,20,17.70
2016,10,07,17,21,17.70
2016,10,07,17,22,16.10
2016,10,07,17,23,19.30
2016,10,07,17,24,16.10
2016,10,07,17,25,17.70
2016,10,07,17,26,19.30
2016,10,07,17,27,17.70
2016,10,07,17,28,19.30
2016,10,07,17,29,20.90
2016,10,07,17,30,22.50
2016,10,07,17,31,22.50
2016,10,07,17,32,20.90
2016,10,07,17,33,17.70
2016,10,07,17,34,20.90
2016,10,07,17,35,20.90
2016,10,07,17,36,20.90
2016,10,07,17,37,24.20
2016,10,07,17,38,20.90
2016,10,07,17,39,20.90
2016,10,07,17,40,17.70
2016,10,07,17,41,20.90
2016,10,07,17,42,22.50
2016,10,07,17,43,22.50
2016,10,07,17,44,22.50
2016,10,07,17,45,24.20
2016,10,07,17,46,22.50
2016,10,07,17,47,22.50
2016,10,07,17,48,22.50
2016,10,07,17,49,22.50
2016,10,07,17,50,22.50
2016,10,07,17,51,20.90
2016,10,07,17,52,22.50
2016,10,07,17,53,20.90
2016,10,07,17,54,20.90
2016,10,07,17,55,22.50
2016,10,07,17,56,22.50
2016,10,07,17,57,24.20
2016,10,07,17,58,22.50
2016,10,07,17,59,24.20
2016,10,07,18,00,24.20
2016,10,07,18,01,24.20
2016,10,07,18,02,24.20
2016,10,07,18,03,24.20
2016,10,07,18,04,22.50
2016,10,07,18,05,22.50
2016,10,07,18,06,20.90
2016,10,07,18,07,22.50
2016,10,07,18,08,20.90
2016,10,07,18,09,19.30
2016,10,07,18,10,19.30
2016,10,07,18,11,19.30
2016,10,07,18,12,19.30
2016,10,07,18,13,17.70
2016,10,07,18,14,17.70